Location: Bad Salzschlirf
(50.3750°N, 9.3000°E)
Time: 08:40:50
(UTC+01:00)

ISS - Pass Details

Date: 07 December 2018
Orbit: 401 x 408 km, 51.6° (Epoch: 12 December)

Event Time Altitude Azimuth Distance (km) Brightness Sun altitude
Rises 16:50:45 0° 273° (W) 2,318 1.1 -5.0°
Reaches altitude 10° 16:52:50 10° 276° (W) 1,458 -0.1 -5.3°
Maximum altitude 16:56:05 68° 360° (N) 439 -3.8 -5.7°
Drops below altitude 10° 16:59:20 10° 84° (E) 1,456 -1.6 -6.2°
Enters shadow 17:00:03 - 86° (E) 1,744 -1.2 -6.3°
